カタログに戻る

COSMOS 375 DEB

運用中LEO
NORAD 4728·DEBRIS·🇷🇺 Russia

打ち上げ Oct 30, 1970 から Baikonur Cosmodrome

Loading…

次のパス (今後24時間)

TLE

最新Source: Space-Track

元期: Sep 14, 2026, 06:55 UTC

1 04728U 70091Z   26257.28842579  .00000680  00000-0  28022-3 0  9996
2 04728  62.9061 351.3724 0633920 294.8848  58.7571 13.59282353689106

AllMySatでCOSMOS 375 DEBをリアルタイム追跡

Download on the App Store